iso_date,Year,Hour,Min,DOY,POS_DOY,Lat,Lon,BP,Ts,Ta,has_bp,has_ts,has_ta,BuoyID,Buoy_Type,Buoy_Owner,Logistics,Hemisphere
2022-08-01T00:00:00Z,2022,0,0,213.0,213.0,81.28469,4.06154,-999.0,-0.4,-999.0,no,yes,no,300534062175230,NOMAD,AWI/USIABP,PolarStern,North
2022-08-01T01:00:02Z,2022,1,0,213.0417,213.0417,81.28865,4.03968,-999.0,-0.5,-999.0,no,yes,no,300534062175230,NOMAD,AWI/USIABP,PolarStern,North
2022-08-01T01:59:57Z,2022,2,0,213.0833,213.0833,81.29451,4.03047,-999.0,-0.5,-999.0,no,yes,no,300534062175230,NOMAD,AWI/USIABP,PolarStern,North
2022-08-01T03:00:00Z,2022,3,0,213.125,213.125,81.30137,4.03405,-999.0,-0.4,-999.0,no,yes,no,300534062175230,NOMAD,AWI/USIABP,PolarStern,North
2022-08-01T04:00:02Z,2022,4,0,213.1667,213.1667,81.308,4.05017,-999.0,-0.5,-999.0,no,yes,no,300534062175230,NOMAD,AWI/USIABP,PolarStern,North
2022-08-01T04:59:57Z,2022,5,0,213.2083,213.2083,81.31293,4.07717,-999.0,-0.4,-999.0,no,yes,no,300534062175230,NOMAD,AWI/USIABP,PolarStern,North
2022-08-01T06:00:00Z,2022,6,0,213.25,213.25,81.31549,4.10893,-999.0,-0.4,-999.0,no,yes,no,300534062175230,NOMAD,AWI/USIABP,PolarStern,North
2022-08-01T07:00:02Z,2022,7,0,213.2917,213.2917,81.316,4.13916,-999.0,-0.4,-999.0,no,yes,no,300534062175230,NOMAD,AWI/USIABP,PolarStern,North
2022-08-01T07:59:57Z,2022,8,0,213.3333,213.3333,81.3145,4.16381,-999.0,-0.4,-999.0,no,yes,no,300534062175230,NOMAD,AWI/USIABP,PolarStern,North
2022-08-01T09:00:00Z,2022,9,0,213.375,213.375,81.31089,4.18175,-999.0,-0.3,-999.0,no,yes,no,300534062175230,NOMAD,AWI/USIABP,PolarStern,North
2022-08-01T10:00:02Z,2022,10,0,213.4167,213.4167,81.30585,4.19229,-999.0,-0.2,-999.0,no,yes,no,300534062175230,NOMAD,AWI/USIABP,PolarStern,North
2022-08-01T10:59:57Z,2022,11,0,213.4583,213.4583,81.29991,4.19589,-999.0,-0.2,-999.0,no,yes,no,300534062175230,NOMAD,AWI/USIABP,PolarStern,North
2022-08-01T12:00:00Z,2022,12,0,213.5,213.5,81.29337,4.18881,-999.0,0.0,-999.0,no,yes,no,300534062175230,NOMAD,AWI/USIABP,PolarStern,North
2022-08-01T13:00:02Z,2022,13,0,213.5417,213.5417,81.28701,4.16813,-999.0,-0.4,-999.0,no,yes,no,300534062175230,NOMAD,AWI/USIABP,PolarStern,North
2022-08-01T13:59:57Z,2022,14,0,213.5833,213.5833,81.28203,4.13811,-999.0,-0.4,-999.0,no,yes,no,300534062175230,NOMAD,AWI/USIABP,PolarStern,North
2022-08-01T15:00:00Z,2022,15,0,213.625,213.625,81.27958,4.10774,-999.0,-0.2,-999.0,no,yes,no,300534062175230,NOMAD,AWI/USIABP,PolarStern,North
2022-08-01T16:00:02Z,2022,16,0,213.6667,213.6667,81.27929,4.07812,-999.0,-0.4,-999.0,no,yes,no,300534062175230,NOMAD,AWI/USIABP,PolarStern,North
2022-08-01T16:59:57Z,2022,17,0,213.7083,213.7083,81.28046,4.04974,-999.0,-0.2,-999.0,no,yes,no,300534062175230,NOMAD,AWI/USIABP,PolarStern,North
2022-08-01T18:00:00Z,2022,18,0,213.75,213.75,81.28267,4.02494,-999.0,-0.2,-999.0,no,yes,no,300534062175230,NOMAD,AWI/USIABP,PolarStern,North
2022-08-01T19:59:57Z,2022,20,0,213.8333,213.8333,81.2864,3.98569,-999.0,-0.2,-999.0,no,yes,no,300534062175230,NOMAD,AWI/USIABP,PolarStern,North
2022-08-01T21:00:00Z,2022,21,0,213.875,213.875,81.28627,3.97506,-999.0,-0.3,-999.0,no,yes,no,300534062175230,NOMAD,AWI/USIABP,PolarStern,North
2022-08-01T22:00:02Z,2022,22,0,213.9167,213.9167,81.2852,3.95286,-999.0,-0.4,-999.0,no,yes,no,300534062175230,NOMAD,AWI/USIABP,PolarStern,North
2022-08-01T22:59:57Z,2022,23,0,213.9583,213.9583,81.28384,3.91954,-999.0,-0.4,-999.0,no,yes,no,300534062175230,NOMAD,AWI/USIABP,PolarStern,North
2022-08-02T00:00:00Z,2022,0,0,214.0,214.0,81.28402,3.88613,-999.0,-0.4,-999.0,no,yes,no,300534062175230,NOMAD,AWI/USIABP,PolarStern,North
2022-08-02T01:00:02Z,2022,1,0,214.0417,214.0417,81.2864,3.85849,-999.0,-0.4,-999.0,no,yes,no,300534062175230,NOMAD,AWI/USIABP,PolarStern,North
2022-08-02T01:59:57Z,2022,2,0,214.0833,214.0833,81.29029,3.83942,-999.0,-0.4,-999.0,no,yes,no,300534062175230,NOMAD,AWI/USIABP,PolarStern,North
2022-08-02T03:00:00Z,2022,3,0,214.125,214.125,81.29492,3.83027,-999.0,-0.3,-999.0,no,yes,no,300534062175230,NOMAD,AWI/USIABP,PolarStern,North
2022-08-02T04:00:02Z,2022,4,0,214.1667,214.1667,81.29958,3.83043,-999.0,-0.4,-999.0,no,yes,no,300534062175230,NOMAD,AWI/USIABP,PolarStern,North
2022-08-02T04:59:57Z,2022,5,0,214.2083,214.2083,81.30328,3.83557,-999.0,-0.3,-999.0,no,yes,no,300534062175230,NOMAD,AWI/USIABP,PolarStern,North
2022-08-02T06:00:00Z,2022,6,0,214.25,214.25,81.30529,3.84232,-999.0,-0.4,-999.0,no,yes,no,300534062175230,NOMAD,AWI/USIABP,PolarStern,North
2022-08-02T07:00:02Z,2022,7,0,214.2917,214.2917,81.30592,3.85911,-999.0,-0.1,-999.0,no,yes,no,300534062175230,NOMAD,AWI/USIABP,PolarStern,North
2022-08-02T07:59:57Z,2022,8,0,214.3333,214.3333,81.30291,3.86286,-999.0,0.0,-999.0,no,yes,no,300534062175230,NOMAD,AWI/USIABP,PolarStern,North
2022-08-02T09:00:00Z,2022,9,0,214.375,214.375,81.29852,3.85371,-999.0,-0.1,-999.0,no,yes,no,300534062175230,NOMAD,AWI/USIABP,PolarStern,North
2022-08-02T10:00:02Z,2022,10,0,214.4167,214.4167,81.29379,3.83287,-999.0,0.0,-999.0,no,yes,no,300534062175230,NOMAD,AWI/USIABP,PolarStern,North
2022-08-02T10:59:57Z,2022,11,0,214.4583,214.4583,81.28916,3.79986,-999.0,0.0,-999.0,no,yes,no,300534062175230,NOMAD,AWI/USIABP,PolarStern,North
2022-08-02T12:00:00Z,2022,12,0,214.5,214.5,81.2851,3.7611,-999.0,-0.1,-999.0,no,yes,no,300534062175230,NOMAD,AWI/USIABP,PolarStern,North
2022-08-02T13:00:02Z,2022,13,0,214.5417,214.5417,81.28247,3.72536,-999.0,-0.1,-999.0,no,yes,no,300534062175230,NOMAD,AWI/USIABP,PolarStern,North
2022-08-02T13:59:57Z,2022,14,0,214.5833,214.5833,81.28081,3.69051,-999.0,0.0,-999.0,no,yes,no,300534062175230,NOMAD,AWI/USIABP,PolarStern,North
2022-08-02T15:00:00Z,2022,15,0,214.625,214.625,81.28006,3.65666,-999.0,-0.1,-999.0,no,yes,no,300534062175230,NOMAD,AWI/USIABP,PolarStern,North
2022-08-02T16:00:02Z,2022,16,0,214.6667,214.6667,81.2797,3.62,-999.0,0.0,-999.0,no,yes,no,300534062175230,NOMAD,AWI/USIABP,PolarStern,North
2022-08-02T16:59:57Z,2022,17,0,214.7083,214.7083,81.27978,3.58094,-999.0,-0.1,-999.0,no,yes,no,300534062175230,NOMAD,AWI/USIABP,PolarStern,North
2022-08-02T18:00:00Z,2022,18,0,214.75,214.75,81.2798,3.5397,-999.0,-0.1,-999.0,no,yes,no,300534062175230,NOMAD,AWI/USIABP,PolarStern,North
2022-08-02T19:00:02Z,2022,19,0,214.7917,214.7917,81.27958,3.49605,-999.0,-0.2,-999.0,no,yes,no,300534062175230,NOMAD,AWI/USIABP,PolarStern,North
2022-08-02T19:59:57Z,2022,20,0,214.8333,214.8333,81.27905,3.44563,-999.0,-0.2,-999.0,no,yes,no,300534062175230,NOMAD,AWI/USIABP,PolarStern,North
2022-08-02T21:00:00Z,2022,21,0,214.875,214.875,81.27795,3.39444,-999.0,-0.3,-999.0,no,yes,no,300534062175230,NOMAD,AWI/USIABP,PolarStern,North
2022-08-02T22:00:02Z,2022,22,0,214.9167,214.9167,81.27679,3.3387,-999.0,-0.4,-999.0,no,yes,no,300534062175230,NOMAD,AWI/USIABP,PolarStern,North
2022-08-02T22:59:57Z,2022,23,0,214.9583,214.9583,81.27586,3.28263,-999.0,-0.4,-999.0,no,yes,no,300534062175230,NOMAD,AWI/USIABP,PolarStern,North
2022-08-03T00:00:00Z,2022,0,0,215.0,215.0,81.2754,3.22974,-999.0,-0.5,-999.0,no,yes,no,300534062175230,NOMAD,AWI/USIABP,PolarStern,North
2022-08-03T01:00:02Z,2022,1,0,215.0417,215.0417,81.27565,3.18246,-999.0,-0.5,-999.0,no,yes,no,300534062175230,NOMAD,AWI/USIABP,PolarStern,North
2022-08-03T01:59:57Z,2022,2,0,215.0833,215.0833,81.2767,3.1408,-999.0,-0.5,-999.0,no,yes,no,300534062175230,NOMAD,AWI/USIABP,PolarStern,North
2022-08-03T03:00:00Z,2022,3,0,215.125,215.125,81.27702,3.10936,-999.0,-0.5,-999.0,no,yes,no,300534062175230,NOMAD,AWI/USIABP,PolarStern,North
2022-08-03T04:00:02Z,2022,4,0,215.1667,215.1667,81.27782,3.08621,-999.0,-0.5,-999.0,no,yes,no,300534062175230,NOMAD,AWI/USIABP,PolarStern,North
2022-08-03T04:59:57Z,2022,5,0,215.2083,215.2083,81.27797,3.07002,-999.0,-0.6,-999.0,no,yes,no,300534062175230,NOMAD,AWI/USIABP,PolarStern,North
2022-08-03T06:00:00Z,2022,6,0,215.25,215.25,81.27715,3.05649,-999.0,-0.6,-999.0,no,yes,no,300534062175230,NOMAD,AWI/USIABP,PolarStern,North
2022-08-03T07:00:02Z,2022,7,0,215.2917,215.2917,81.2754,3.04235,-999.0,-0.6,-999.0,no,yes,no,300534062175230,NOMAD,AWI/USIABP,PolarStern,North
2022-08-03T07:59:57Z,2022,8,0,215.3333,215.3333,81.27259,3.0251,-999.0,-0.6,-999.0,no,yes,no,300534062175230,NOMAD,AWI/USIABP,PolarStern,North
2022-08-03T09:00:00Z,2022,9,0,215.375,215.375,81.26843,3.00204,-999.0,-0.6,-999.0,no,yes,no,300534062175230,NOMAD,AWI/USIABP,PolarStern,North
2022-08-03T10:00:02Z,2022,10,0,215.4167,215.4167,81.26496,2.97877,-999.0,-0.6,-999.0,no,yes,no,300534062175230,NOMAD,AWI/USIABP,PolarStern,North
2022-08-03T10:59:57Z,2022,11,0,215.4583,215.4583,81.25886,2.93058,-999.0,-0.6,-999.0,no,yes,no,300534062175230,NOMAD,AWI/USIABP,PolarStern,North
2022-08-03T12:00:00Z,2022,12,0,215.5,215.5,81.25429,2.88717,-999.0,-0.5,-999.0,no,yes,no,300534062175230,NOMAD,AWI/USIABP,PolarStern,North
2022-08-03T13:00:02Z,2022,13,0,215.5417,215.5417,81.25016,2.84145,-999.0,-0.7,-999.0,no,yes,no,300534062175230,NOMAD,AWI/USIABP,PolarStern,North
2022-08-03T13:59:57Z,2022,14,0,215.5833,215.5833,81.24714,2.79645,-999.0,-0.6,-999.0,no,yes,no,300534062175230,NOMAD,AWI/USIABP,PolarStern,North
2022-08-03T15:00:00Z,2022,15,0,215.625,215.625,81.24462,2.75609,-999.0,-0.6,-999.0,no,yes,no,300534062175230,NOMAD,AWI/USIABP,PolarStern,North
2022-08-03T16:00:02Z,2022,16,0,215.6667,215.6667,81.24265,2.71961,-999.0,-0.6,-999.0,no,yes,no,300534062175230,NOMAD,AWI/USIABP,PolarStern,North
2022-08-03T16:59:57Z,2022,17,0,215.7083,215.7083,81.24093,2.68844,-999.0,-0.6,-999.0,no,yes,no,300534062175230,NOMAD,AWI/USIABP,PolarStern,North
2022-08-03T18:00:00Z,2022,18,0,215.75,215.75,81.23906,2.65985,-999.0,-0.6,-999.0,no,yes,no,300534062175230,NOMAD,AWI/USIABP,PolarStern,North
2022-08-03T19:00:02Z,2022,19,0,215.7917,215.7917,81.23705,2.63066,-999.0,-0.7,-999.0,no,yes,no,300534062175230,NOMAD,AWI/USIABP,PolarStern,North
2022-08-03T19:59:57Z,2022,20,0,215.8333,215.8333,81.23433,2.59915,-999.0,-0.7,-999.0,no,yes,no,300534062175230,NOMAD,AWI/USIABP,PolarStern,North
2022-08-03T22:00:02Z,2022,22,0,215.9167,215.9167,81.22697,2.51618,-999.0,-0.6,-999.0,no,yes,no,300534062175230,NOMAD,AWI/USIABP,PolarStern,North
2022-08-03T22:59:57Z,2022,23,0,215.9583,215.9583,81.22333,2.46473,-999.0,-0.6,-999.0,no,yes,no,300534062175230,NOMAD,AWI/USIABP,PolarStern,North
2022-08-04T00:00:00Z,2022,0,0,216.0,216.0,81.22036,2.41562,-999.0,-0.6,-999.0,no,yes,no,300534062175230,NOMAD,AWI/USIABP,PolarStern,North
2022-08-04T01:00:02Z,2022,1,0,216.0417,216.0417,81.21801,2.3706,-999.0,-0.7,-999.0,no,yes,no,300534062175230,NOMAD,AWI/USIABP,PolarStern,North
2022-08-04T01:59:57Z,2022,2,0,216.0833,216.0833,81.21658,2.33323,-999.0,-0.7,-999.0,no,yes,no,300534062175230,NOMAD,AWI/USIABP,PolarStern,North
2022-08-04T03:00:00Z,2022,3,0,216.125,216.125,81.21566,2.30487,-999.0,-0.7,-999.0,no,yes,no,300534062175230,NOMAD,AWI/USIABP,PolarStern,North
2022-08-04T04:00:02Z,2022,4,0,216.1667,216.1667,81.21507,2.29006,-999.0,-0.7,-999.0,no,yes,no,300534062175230,NOMAD,AWI/USIABP,PolarStern,North
2022-08-04T04:59:57Z,2022,5,0,216.2083,216.2083,81.21373,2.27524,-999.0,-0.7,-999.0,no,yes,no,300534062175230,NOMAD,AWI/USIABP,PolarStern,North
2022-08-04T06:00:00Z,2022,6,0,216.25,216.25,81.21193,2.26852,-999.0,-0.7,-999.0,no,yes,no,300534062175230,NOMAD,AWI/USIABP,PolarStern,North
2022-08-04T07:00:02Z,2022,7,0,216.2917,216.2917,81.20924,2.26349,-999.0,-0.7,-999.0,no,yes,no,300534062175230,NOMAD,AWI/USIABP,PolarStern,North
2022-08-04T07:59:57Z,2022,8,0,216.3333,216.3333,81.20572,2.25284,-999.0,-1.4,-999.0,no,yes,no,300534062175230,NOMAD,AWI/USIABP,PolarStern,North
2022-08-04T09:00:00Z,2022,9,0,216.375,216.375,81.20162,2.23772,-999.0,-1.4,-999.0,no,yes,no,300534062175230,NOMAD,AWI/USIABP,PolarStern,North
2022-08-04T10:00:02Z,2022,10,0,216.4167,216.4167,81.1973,2.21626,-999.0,-1.5,-999.0,no,yes,no,300534062175230,NOMAD,AWI/USIABP,PolarStern,North
2022-08-04T10:59:57Z,2022,11,0,216.4583,216.4583,81.19329,2.18928,-999.0,-1.5,-999.0,no,yes,no,300534062175230,NOMAD,AWI/USIABP,PolarStern,North
2022-08-04T12:00:00Z,2022,12,0,216.5,216.5,81.18968,2.15885,-999.0,-1.4,-999.0,no,yes,no,300534062175230,NOMAD,AWI/USIABP,PolarStern,North
2022-08-04T13:00:02Z,2022,13,0,216.5417,216.5417,81.18669,2.13267,-999.0,-1.5,-999.0,no,yes,no,300534062175230,NOMAD,AWI/USIABP,PolarStern,North
2022-08-04T13:59:57Z,2022,14,0,216.5833,216.5833,81.1842,2.10858,-999.0,-1.5,-999.0,no,yes,no,300534062175230,NOMAD,AWI/USIABP,PolarStern,North
2022-08-04T15:00:00Z,2022,15,0,216.625,216.625,81.18213,2.09115,-999.0,-1.5,-999.0,no,yes,no,300534062175230,NOMAD,AWI/USIABP,PolarStern,North
2022-08-04T16:00:02Z,2022,16,0,216.6667,216.6667,81.18001,2.07907,-999.0,-1.6,-999.0,no,yes,no,300534062175230,NOMAD,AWI/USIABP,PolarStern,North
2022-08-04T16:59:57Z,2022,17,0,216.7083,216.7083,81.17784,2.07311,-999.0,-1.7,-999.0,no,yes,no,300534062175230,NOMAD,AWI/USIABP,PolarStern,North
2022-08-04T18:00:00Z,2022,18,0,216.75,216.75,81.17575,2.06841,-999.0,-1.1,-999.0,no,yes,no,300534062175230,NOMAD,AWI/USIABP,PolarStern,North
2022-08-04T19:00:02Z,2022,19,0,216.7917,216.7917,81.17314,2.06358,-999.0,-1.0,-999.0,no,yes,no,300534062175230,NOMAD,AWI/USIABP,PolarStern,North
2022-08-04T19:59:57Z,2022,20,0,216.8333,216.8333,81.17025,2.05601,-999.0,-0.9,-999.0,no,yes,no,300534062175230,NOMAD,AWI/USIABP,PolarStern,North
2022-08-04T21:00:00Z,2022,21,0,216.875,216.875,81.16754,2.04073,-999.0,-0.7,-999.0,no,yes,no,300534062175230,NOMAD,AWI/USIABP,PolarStern,North
2022-08-04T22:00:02Z,2022,22,0,216.9167,216.9167,81.16458,2.02077,-999.0,-0.8,-999.0,no,yes,no,300534062175230,NOMAD,AWI/USIABP,PolarStern,North
2022-08-04T22:59:57Z,2022,23,0,216.9583,216.9583,81.16167,2.00101,-999.0,-0.7,-999.0,no,yes,no,300534062175230,NOMAD,AWI/USIABP,PolarStern,North
2022-08-05T00:00:00Z,2022,0,0,217.0,217.0,81.15933,1.97973,-999.0,-0.7,-999.0,no,yes,no,300534062175230,NOMAD,AWI/USIABP,PolarStern,North
2022-08-05T01:00:02Z,2022,1,0,217.0417,217.0417,81.15744,1.96051,-999.0,-0.7,-999.0,no,yes,no,300534062175230,NOMAD,AWI/USIABP,PolarStern,North
2022-08-05T01:59:57Z,2022,2,0,217.0833,217.0833,81.15593,1.94649,-999.0,-0.8,-999.0,no,yes,no,300534062175230,NOMAD,AWI/USIABP,PolarStern,North
